KE6JJJ-1 Weather Reports


time (UTC)temp
C
wind
direction
speed
KPH
gust
KPH
rain 1hr
cm
rain 24hr
cm
rain mn
cm
humidity
%
barometer
mb
20260507003503 18 292 17.7 24.1 0.00 0.00 0.00 71 1018.1
20260507000503 18 248 8.0 17.7 0.00 0.00 0.00 70 1018.1
20260506233503 17 225 8.0 20.9 0.00 0.00 0.00 72 1018.4
20260506230503 18 292 12.9 17.7 0.00 0.00 0.00 73 1018.5
20260506223503 18 270 14.5 19.3 0.00 0.00 0.00 71 1018.8
20260506220503 20 270 14.5 24.1 0.00 0.00 0.00 67 1019.2
20260506213503 20 270 11.3 17.7 0.00 0.00 0.00 67 1019.5
20260506210503 21 270 12.9 17.7 0.00 0.00 0.00 65 1019.6
20260506203503 21 292 9.7 16.1 0.00 0.00 0.00 65 1019.8
20260506200503 21 225 4.8 9.7 0.00 0.00 0.00 65 1020.0
20260506193503 21 248 11.3 16.1 0.00 0.00 0.00 64 1020.1
20260506190503 21 292 8.0 11.3 0.00 0.00 0.00 63 1020.4
20260506183503 21 338 4.8 8.0 0.00 0.00 0.00 63 1020.6
20260506180503 21 180 8.0 11.3 0.00 0.00 0.00 64 1020.6
20260506173503 19 0 0.0 3.2 0.00 0.00 0.00 68 1020.4
20260506170503 18 225 1.6 1.6 0.00 0.00 0.00 71 1020.7
20260506163503 17 315 1.6 4.8 0.00 0.00 0.00 71 1020.6
20260506160503 17 0 3.2 4.8 0.00 0.00 0.00 71 1020.6
20260506153503 16 338 1.6 4.8 0.00 0.00 0.00 75 1020.6
20260506150504 15 202 1.6 3.2 0.00 0.00 0.00 77 1020.5
20260506143503 15 0 0.0 0.0 0.00 0.00 0.00 80 1020.3
20260506140503 13 270 3.2 4.8 0.00 0.00 0.00 82 1020.1
20260506133503 13 270 1.6 4.8 0.00 0.00 0.00 81 1020.0
20260506130504 13 270 6.4 9.7 0.00 0.00 0.00 81 1019.7
20260506123503 13 270 4.8 6.4 0.00 0.00 0.00 81 1019.7
20260506120503 13 292 1.6 3.2 0.00 0.00 0.00 81 1019.4
20260506113503 13 292 1.6 3.2 0.00 0.00 0.00 81 1019.3
20260506110503 13 270 8.0 12.9 0.00 0.00 0.00 84 1019.0
20260506103503 13 248 4.8 9.7 0.00 0.00 0.00 83 1018.9
20260506100503 13 270 3.2 4.8 0.00 0.00 0.00 82 1018.7
20260506093503 13 315 4.8 6.4 0.00 0.03 0.00 81 1018.9
20260506090503 13 315 3.2 3.2 0.00 0.03 0.00 81 1018.7
20260506083503 13 0 0.0 1.6 0.00 0.05 0.00 81 1018.7
20260506080511 13 292 4.8 9.7 0.00 0.10 0.00 81 1018.8
20260506073503 13 270 3.2 4.8 0.00 0.18 0.00 82 1018.5
20260506070504 13 292 3.2 6.4 0.00 0.20 0.00 82 1018.4
20260506060609 14 292 4.8 6.4 0.00 0.23 0.20 81 1018.1
20260506060503 14 292 4.8 6.4 0.00 0.23 0.20 81 1018.1
20260506050503 14 248 8.0 14.5 0.00 0.28 0.20 81 1017.8
20260506043511 14 270 3.2 6.4 0.00 0.33 0.20 82 1017.6
20260506040509 14 270 8.0 12.9 0.00 0.33 0.20 80 1017.0
20260506033503 14 248 4.8 9.7 0.00 0.33 0.20 79 1016.5
20260506030503 15 225 8.0 14.5 0.00 0.33 0.20 77 1016.4
20260506023503 15 225 12.9 16.1 0.00 0.33 0.20 76 1016.2
20260506020503 16 270 6.4 11.3 0.00 0.33 0.20 73 1015.8
20260506013504 16 270 6.4 16.1 0.00 0.33 0.20 71 1015.9
20260506010503 17 270 9.7 14.5 0.00 0.33 0.20 69 1015.8